CZ-4B DEB, 40533

Orbit data source: Space-Track

CZ-4B DEB, 40533 is space debris in LEO originally from a launch on Fri, 25 Oct 2013 UTC launched from the Jiuquan Satellite Launch Center, China (JSC). Debris objects in space refer to the collection of defunct objects orbiting the Earth. Examples of debris include non-operational satellites, rocket bodies, and fragments generated from explosions, collisions, or faulty payload assembly.

Loading next visibility...
Identifier
40533, 2013-057F
Orbit
LEO
Country
Flag of CNCN / PRC
Related business
Manufacturer
SAST
Mission
Spacecraft
Bus & Motor
Unknown
Mass
Unknown
Launch date (UTC)
2013-10-25 (12 years ago)
Launch vehicle
Unknown
Launch site
Jiuquan Satellite Launch Center, China (JSC)
Object type
Payload
Rocket body
Debris
Shape & HBR
Unknown
Radar Cross Section
Small (<0.1 m²)

Expand to show TLE details & history
Last TLE update: 1 day ago

TLE from 1 day ago
0 CZ-4B DEB
1 40533U 13057F   25260.43727614  .00003193  00000-0  54519-3 0  9993
2 40533  74.9178 289.2353 0166039 123.5915 238.1232 14.60531636553588
Epoch: 2025-09-17T10:29Z
TLE epoch observation values (Epoch: 2025-09-17T10:29:40.658Z)
Latitude
-0.00003°
Longitude
135.20265°
Altitude
757.538 km
Speed
7.442 km/s
True Right ascension
19h 16m 56s
True Declination
0° 00' 00"
Sunlit
Object was in daylight at epoch
Visualization orbit readout
Latitude
Unknown
Longitude
Unknown
Altitude
Unknown
Speed
Unknown
Apparent Right ascension
Unknown
Apparent Declination
Unknown
Sunlit
N/A
Visualization observer readout
Local Sidereal Time
02:55:48
Azimuth
Unknown
Elevation
Unknown
Doppler factor
Unknown
Orbital elements
Apogee altitude
806.321 km
Perigee altitude
571.638 km
Semi-major axis
7,067.117 km
Eccentricity
0.0166
Inclination
74.9178°
RAAN
289.2353°
Arg. of periapsis
123.5915°
True anomaly
236.52521°
Mean anomaly
238.1232°
Eccentric anomaly
237.32244°
Mean motion
3.65325 °/min
Orbital period
98.54 mins
BSTAR
0.00054519
Loading maneuver chart data...
Computing Atmospheric mass density...
Loading historical data...
Loading historical data...
Loading historical data...
Loading historical data...
Loading historical data...
Loading historical data...
Loading historical data...
Other satellites on launch #57 in the year 2013 (2013-10-25 UTC)

Documentation

Showing up to 5 results
|